Torna al catalogo

THORAD DELTA 1 DEB

AttivoSSO
NORAD 8154·DEBRIS·🇺🇸 United States

Lanciato Nov 15, 1974 da Vandenberg Space Force Base

Loading…

Prossimi Passaggi (prossime 24 ore)

TLE

AggiornatoSource: Space-Track

Epoca: Sep 14, 2026, 11:44 UTC

1 08154U 74089U   26257.48900110 -.00000045  00000-0  11538-4 0  9993
2 08154 102.0727 266.0783 0005771 140.2888  15.7699 12.52434992369323

Traccia THORAD DELTA 1 DEB in tempo reale con AllMySat

Download on the App Store